[[{"header":{"parameterUnit":"m.s-1","parameterCategory":1,"la1":30.2991,"la2":30.254,"lo1":-89.0895,"lo2":-89.0444,"dy":0.0017,"dx":0.0017,"nx":28,"ny":28,"refTime":"2024-05-08T09:00:00:Z","depth":0,"parameterNumber":2,"parameterNumberName":"U-component_of_WINDS"},"data":[0,0,0,0,0,0,0,0,0,0,0,0,0,0,0,0,0,0,0,0,0,0,0,0,0,0,0,0,0,0,0,0,0,0,0,0,0,0,0,0,0,0,0,0,0,0,0,0,0,0,0,0,0,0,0,0,0,0,-1.8142,-1.8142,0,-1.8177,-1.8177,-1.8178,-1.8195,-1.8195,-1.8195,-1.8195,-1.8231,-1.8232,-1.8233,0,0,0,0,0,0,0,0,0,0,0,0,0,-1.8091,-1.8092,-1.8142,-1.8142,-1.8143,-1.8177,-1.8177,-1.8178,-1.8195,-1.8195,-1.8195,-1.8195,-1.8231,-1.8232,-1.8233,0,0,0,0,0,0,0,0,0,0,0,0,0,-1.8118,-1.8092,-1.8142,-1.8155,-1.8157,-1.8177,-1.8177,-1.8178,-1.8195,-1.8195,-1.8195,-1.8195,-1.823,-1.8232,-1.8233,-1.8242,0,0,-1.8238,-1.8238,0,0,0,0,0,0,0,0,-1.8117,-1.812,-1.8153,-1.8154,-1.8156,-1.8181,-1.8173,-1.8199,-1.8195,-1.818,-1.8195,-1.8195,-1.8215,-1.8217,-1.8224,-1.8244,-1.8245,-1.8238,-1.8239,-1.8239,-1.824,0,0,0,0,0,0,0,-1.8115,-1.8119,-1.8156,-1.8153,-1.8155,-1.816,-1.8164,-1.8178,-1.8197,-1.8182,-1.8183,-1.8187,-1.8215,-1.8222,-1.8225,-1.8246,-1.8238,-1.8239,-1.824,-1.824,-1.8276,-1.8276,0,0,0,0,0,0,-1.8111,-1.8117,-1.8155,-1.8157,-1.8136,-1.8161,-1.8165,-1.8173,-1.8197,-1.8201,-1.8187,-1.8188,-1.822,-1.8223,-1.8226,-1.8239,-1.8239,-1.8241,-1.8241,-1.8276,-1.8276,-1.8276,0,0,0,0,0,0,-1.8109,-1.8114,-1.8153,-1.8137,-1.8143,-1.8162,-1.8171,-1.8174,-1.8181,-1.8201,-1.8204,-1.819,-1.822,-1.8224,-1.8238,-1.824,-1.8241,-1.8242,-1.8276,-1.8276,-1.8276,-1.8263,0,0,0,0,0,0,-1.8108,-1.8113,-1.8116,-1.8137,-1.8143,-1.8164,-1.8171,-1.8175,-1.8183,-1.8185,-1.8205,-1.8208,-1.822,-1.8236,-1.824,-1.8242,-1.8244,-1.8276,-1.8276,-1.8276,-1.8264,-1.8263,-1.8263,0,0,0,0,0,-1.8106,-1.8112,-1.8117,-1.8121,-1.8148,-1.8164,-1.8168,-1.8181,-1.8183,-1.8187,-1.82,-1.8208,-1.8239,-1.8237,-1.8242,-1.8245,-1.8276,-1.8276,-1.8276,-1.8264,-1.8263,-1.8263,0,0,0,0,0,0,-1.8091,-1.8114,-1.812,-1.8133,-1.8146,-1.8167,-1.8172,-1.818,-1.8193,-1.8194,-1.821,-1.8215,-1.8227,-1.8237,-1.8235,-1.8255,-1.8258,-1.8259,-1.8248,-1.8247,-1.8247,-1.8244,-1.8245,0,0,0,0,0,-1.8089,-1.81,-1.812,-1.8129,-1.8135,-1.8153,-1.816,-1.8169,-1.8184,-1.819,-1.8204,-1.8218,-1.8232,-1.824,-1.8253,-1.8266,-1.8271,-1.827,-1.8269,-1.8269,-1.8269,-1.8277,-1.8277,-1.8277,-1.8277,-1.8277,0,0,-1.8085,-1.8099,-1.8105,-1.8126,-1.8138,-1.8149,-1.8157,-1.8169,-1.8178,-1.8192,-1.8206,-1.8217,-1.8234,-1.8248,-1.8254,-1.8256,-1.8271,-1.8269,-1.8268,-1.8269,-1.8277,-1.8277,-1.8277,-1.8277,-1.8277,-1.8277,0,0,-1.8083,-1.8095,-1.8104,-1.8116,-1.8133,-1.8145,-1.8147,-1.8167,-1.8174,-1.8189,-1.82,-1.8211,-1.8233,-1.8245,-1.8254,-1.8259,-1.8266,-1.8263,-1.8259,-1.8267,-1.8267,-1.8267,-1.8269,-1.8269,-1.8263,-1.8263,-1.8263,0,-1.8076,-1.8093,-1.8108,-1.8119,-1.8128,-1.8142,-1.8151,-1.8162,-1.8183,-1.8189,-1.8192,-1.822,-1.8233,-1.825,-1.8251,-1.8257,-1.8261,-1.826,-1.8266,-1.8266,-1.8266,-1.8268,-1.8269,-1.8263,-1.8263,-1.8263,-1.8263,0,-1.8084,-1.8096,-1.8101,-1.8121,-1.8131,-1.8141,-1.8157,-1.8166,-1.8175,-1.8186,-1.8201,-1.8217,-1.8234,-1.8238,-1.8247,-1.8257,-1.8257,-1.8262,-1.8266,-1.8265,-1.8268,-1.8268,-1.8262,-1.8262,-1.8262,-1.8262,0,0,-1.8073,-1.8101,-1.8103,-1.8112,-1.8133,-1.8143,-1.8154,-1.8171,-1.8178,-1.8192,-1.8203,-1.8222,-1.8227,-1.8237,-1.8247,-1.8254,-1.8256,-1.8258,-1.8259,-1.8257,-1.8269,-1.8265,-1.8265,-1.8262,-1.8262,-1.8262,-1.8267,0,-1.8075,-1.8095,-1.8108,-1.8124,-1.8135,-1.8149,-1.8159,-1.8173,-1.8184,-1.8196,-1.8209,-1.8222,-1.8227,-1.8234,-1.8241,-1.8255,-1.8259,-1.8254,-1.8272,-1.8272,-1.8267,-1.8266,-1.8262,-1.8266,-1.8268,-1.8268,-1.8268,0,-1.8079,-1.8093,-1.8109,-1.8129,-1.8135,-1.8143,-1.816,-1.8171,-1.8188,-1.8195,-1.8207,-1.8218,-1.8231,-1.8234,-1.8252,-1.8249,-1.8257,-1.8265,-1.8266,-1.8268,-1.827,-1.8268,-1.8267,-1.8268,-1.827,-1.827,-1.827,0,-1.807,-1.8093,-1.8105,-1.8113,-1.8137,-1.8143,-1.8153,-1.817,-1.8179,-1.8194,-1.82,-1.8216,-1.8225,-1.8238,-1.8253,-1.8253,-1.827,-1.8274,-1.8277,-1.8277,-1.828,-1.8279,-1.828,-1.8285,-1.8285,-1.8285,-1.8285,0,-1.807,-1.8079,-1.8102,-1.8109,-1.8121,-1.8137,-1.8148,-1.8159,-1.8174,-1.8185,-1.8198,-1.8208,-1.8227,-1.8239,-1.8251,-1.8265,-1.8269,-1.8276,-1.8279,-1.8275,-1.8274,-1.828,-1.828,-1.8285,-1.8285,-1.8285,-1.8285,0,-1.8061,-1.8076,-1.8091,-1.8113,-1.8119,-1.8126,-1.8145,-1.8153,-1.8165,-1.8179,-1.8183,-1.8202,-1.8218,-1.8234,-1.8255,-1.8263,-1.8277,-1.8281,-1.8271,-1.8273,-1.8275,-1.8275,-1.828,-1.8281,-1.8285,-1.8285,-1.8285,0,-1.806,-1.8068,-1.809,-1.8098,-1.8108,-1.8121,-1.8131,-1.8147,-1.8157,-1.8177,-1.8183,-1.8199,-1.8213,-1.8238,-1.8254,-1.827,-1.8275,-1.8276,-1.8278,-1.8273,-1.8275,-1.8275,-1.8276,-1.8275,-1.8275,-1.8275,-1.8275,0,-1.8057,-1.8065,-1.8078,-1.8094,-1.8105,-1.8118,-1.8132,-1.8138,-1.8158,-1.8168,-1.8184,-1.8195,-1.8217,-1.8233,-1.8251,-1.8263,-1.8272,-1.8274,-1.8276,-1.8271,-1.8265,-1.8269,-1.8269,-1.8274,-1.8274,-1.8274,-1.8274,-1.8274,-1.8053,-1.806,-1.8077,-1.8092,-1.8104,-1.8117,-1.8126,-1.814,-1.8153,-1.8172,-1.8181,-1.8197,-1.8215,-1.824,-1.8251,-1.8265,-1.8267,-1.827,-1.827,-1.8271,-1.827,-1.8263,-1.8268,-1.8268,-1.8268,-1.8268,-1.8268,0,-1.805,-1.8062,-1.8075,-1.8094,-1.8106,-1.8114,-1.813,-1.8139,-1.8153,-1.8169,-1.8182,-1.8201,-1.8217,-1.8235,-1.8252,-1.826,-1.8264,-1.8264,-1.8263,-1.8266,-1.8266,-1.8263,-1.8259,-1.8259,-1.8259,-1.8259,-1.8259,-1.8259,-1.8051,-1.8064,-1.8073,-1.8093,-1.8105,-1.8121,-1.8129,-1.8142,-1.8154,-1.8174,-1.8188,-1.8199,-1.8216,-1.8235,-1.825,-1.8255,-1.8261,-1.8259,-1.8265,-1.8265,-1.8266,-1.8266,-1.8263,-1.826,-1.826,-1.8264,-1.8264,-1.8264]},{"header":{"parameterUnit":"m.s-1","parameterCategory":1,"la1":30.2991,"la2":30.254,"lo1":-89.0895,"lo2":-89.0444,"dy":0.0017,"dx":0.0017,"nx":28,"ny":28,"refTime":"2024-05-08T09:00:00:Z","depth":0,"parameterNumber":3,"parameterNumberName":"V-component_of_WINDS"},"data":[0,0,0,0,0,0,0,0,0,0,0,0,0,0,0,0,0,0,0,0,0,0,0,0,0,0,0,0,0,0,0,0,0,0,0,0,0,0,0,0,0,0,0,0,0,0,0,0,0,0,0,0,0,0,0,0,0,0,6.7388,6.7389,0,6.7442,6.7442,6.7443,6.7437,6.7436,6.7436,6.7435,6.7484,6.7487,6.7489,0,0,0,0,0,0,0,0,0,0,0,0,0,6.7278,6.728,6.7388,6.7389,6.739,6.7442,6.7442,6.7443,6.7437,6.7436,6.7435,6.7434,6.7484,6.7486,6.7489,0,0,0,0,0,0,0,0,0,0,0,0,0,6.7328,6.7281,6.7388,6.7393,6.7394,6.7442,6.7442,6.7443,6.7438,6.7436,6.7435,6.7434,6.7483,6.7486,6.7489,6.7533,0,0,6.7499,6.75,0,0,0,0,0,0,0,0,6.7325,6.7332,6.7392,6.7393,6.7394,6.7432,6.7422,6.7473,6.7438,6.7421,6.7435,6.7433,6.7468,6.7472,6.7485,6.7536,6.7538,6.7499,6.7501,6.7502,6.7503,0,0,0,0,0,0,0,6.7322,6.733,6.7409,6.7393,6.7394,6.7392,6.7397,6.7431,6.745,6.7422,6.7422,6.7429,6.7468,6.7482,6.7486,6.7539,6.7499,6.7502,6.7504,6.7505,6.7631,6.7632,0,0,0,0,0,0,6.7318,6.7327,6.7408,6.7411,6.7356,6.7395,6.7401,6.7421,6.745,6.7453,6.743,6.7428,6.7477,6.7482,6.7487,6.7543,6.7502,6.7505,6.7507,6.763,6.7631,6.7633,0,0,0,0,0,0,6.7315,6.7325,6.7405,6.7369,6.7379,6.7398,6.742,6.7422,6.7436,6.7456,6.7459,6.744,6.7476,6.7483,6.7523,6.7544,6.7507,6.7509,6.7628,6.763,6.7632,6.7652,0,0,0,0,0,0,6.7312,6.7324,6.7341,6.7369,6.7381,6.7441,6.7421,6.7424,6.7442,6.7441,6.7466,6.7469,6.7476,6.7518,6.7526,6.7548,6.7512,6.7626,6.7629,6.7631,6.765,6.7655,6.7659,0,0,0,0,0,6.7308,6.7343,6.7342,6.7352,6.7403,6.7442,6.7449,6.7456,6.7444,6.7461,6.7475,6.7469,6.7541,6.7522,6.7531,6.7554,6.7625,6.7628,6.7631,6.7648,6.7654,6.7659,0,0,0,0,0,0,6.7314,6.7347,6.7346,6.7392,6.7415,6.7441,6.7463,6.7462,6.7488,6.7485,6.7492,6.7498,6.7539,6.755,6.7529,6.76,6.7581,6.7586,6.759,6.7597,6.7601,6.7597,6.7515,0,0,0,0,0,6.7322,6.7352,6.7378,6.7415,6.7427,6.7444,6.7461,6.7465,6.7488,6.7497,6.7513,6.7534,6.7562,6.758,6.7606,6.7652,6.7658,6.7672,6.7677,6.7681,6.7685,6.7711,6.7718,6.7644,6.7644,6.7644,0,0,6.7336,6.7357,6.7375,6.7418,6.7436,6.7466,6.7451,6.7483,6.7506,6.7501,6.7541,6.7554,6.7578,6.7622,6.7641,6.7632,6.7707,6.7685,6.7688,6.769,6.7716,6.7723,6.7729,6.7646,6.7646,6.7645,0,0,6.7377,6.7397,6.7431,6.7451,6.748,6.7491,6.7499,6.7527,6.7536,6.7576,6.7574,6.7601,6.7648,6.7666,6.7681,6.7734,6.773,6.7742,6.7766,6.7792,6.7798,6.7803,6.7823,6.7829,6.7746,6.7746,6.7746,0,6.7391,6.7438,6.7448,6.7482,6.7501,6.7502,6.7537,6.7554,6.7589,6.7602,6.7592,6.7654,6.767,6.7718,6.7732,6.7744,6.7754,6.7738,6.7797,6.7802,6.7807,6.7826,6.7833,6.7748,6.7747,6.7747,6.7747,0,6.7454,6.7486,6.7511,6.7548,6.757,6.7603,6.7619,6.7639,6.7643,6.7655,6.7697,6.7717,6.7748,6.776,6.7762,6.781,6.7804,6.7795,6.7776,6.7815,6.7833,6.784,6.775,6.7749,6.7749,6.7748,0,0,6.7498,6.7544,6.7552,6.7571,6.7604,6.7629,6.7663,6.7697,6.7715,6.7739,6.7768,6.781,6.7804,6.7821,6.7826,6.7848,6.789,6.7837,6.7838,6.7847,6.7945,6.7951,6.7959,6.7888,6.789,6.7891,6.7943,0,6.7543,6.7607,6.7619,6.7673,6.7704,6.7707,6.7737,6.776,6.7773,6.78,6.7814,6.7844,6.7832,6.7843,6.7866,6.788,6.791,6.7877,6.7915,6.7916,6.7908,6.7968,6.7974,6.8022,6.795,6.7951,6.7952,0,6.7604,6.7634,6.7693,6.7725,6.7738,6.7765,6.7798,6.7825,6.7852,6.7859,6.7881,6.7884,6.7919,6.79,6.7949,6.7927,6.7943,6.7953,6.7955,6.7958,6.7936,6.7973,6.8038,6.8045,6.7963,6.7962,6.7961,0,6.7632,6.7687,6.773,6.7745,6.7783,6.7802,6.7819,6.7845,6.7865,6.7893,6.7906,6.7937,6.7954,6.7978,6.7989,6.7974,6.8038,6.8019,6.8045,6.8045,6.8057,6.8056,6.8126,6.8068,6.8068,6.8068,6.8068,0,6.7682,6.7717,6.7743,6.7769,6.781,6.7824,6.7863,6.7879,6.7902,6.7931,6.7934,6.7961,6.7974,6.8003,6.8012,6.8052,6.8059,6.8066,6.8068,6.8066,6.8065,6.8076,6.8073,6.807,6.8069,6.8069,6.8069,0,6.7719,6.7738,6.7785,6.7819,6.7828,6.7856,6.7885,6.791,6.7924,6.7961,6.797,6.7991,6.8025,6.8039,6.808,6.8086,6.8132,6.8131,6.8124,6.8124,6.815,6.8147,6.8229,6.824,6.8175,6.8175,6.8176,0,6.7749,6.7777,6.7816,6.7837,6.7855,6.7887,6.7909,6.7924,6.7946,6.7981,6.8002,6.8037,6.8065,6.812,6.8138,6.817,6.817,6.8196,6.8174,6.8172,6.8171,6.8169,6.8172,6.82,6.82,6.8201,6.8201,0,6.7801,6.781,6.7842,6.7879,6.7905,6.7934,6.7961,6.7978,6.7997,6.8022,6.8058,6.8081,6.8124,6.8159,6.8192,6.8208,6.8208,6.8209,6.8216,6.8214,6.8209,6.8213,6.8135,6.8206,6.8206,6.8205,6.8205,6.8205,6.7836,6.7863,6.7895,6.7931,6.7954,6.7981,6.8007,6.8026,6.8057,6.8096,6.8102,6.8141,6.8169,6.8215,6.8232,6.8262,6.8255,6.8266,6.8269,6.8271,6.8274,6.8205,6.8268,6.8268,6.8268,6.8268,6.8268,0,6.7889,6.7911,6.7944,6.7985,6.8014,6.8014,6.8046,6.8069,6.8104,6.8132,6.8161,6.8204,6.8238,6.826,6.8294,6.8314,6.8315,6.8323,6.8321,6.8325,6.8277,6.8268,6.8322,6.8322,6.8322,6.8322,6.8322,6.8322,6.792,6.7965,6.7978,6.8035,6.8056,6.8096,6.8114,6.8139,6.8161,6.8209,6.8239,6.8254,6.828,6.8316,6.8348,6.8353,6.8366,6.8374,6.8379,6.8334,6.8328,6.8323,6.8314,6.8377,6.8377,6.8425,6.8425,6.8425]}]]